Funds performance

fund name 1 mth 3 mth 12 mth ytdsort icon Inception Net assets Return Date
Aberdeen Global Financial Services I/S -9.25% -10.89% -19.04% -23.97% -7.04% 2011-11-30
Aberdeen Global Financial Services Inst -8.92% -10.56% -17.86% -22.92% -0.84% 2011-11-30
EGShares Financials GEMS ETF -4.16% -12.74% -0.07% -14.88% -0.95% 2013-08-31
iShares MSCI Far East Financials -0.72% -9.55% -2.56% -9.55% 5.75% 2014-03-31
PowerShares KBW International Financial -8.31% -6.37% 1.11% -8.31% 1.25% 2014-01-31
Prudential Financial Services Z -4.64% -2.09% 15.00% -4.64% 9.26% 2014-01-31
PowerShares KBW Prop & Casuality Insur 2.62% -3.51% 9.61% -3.51% 15.61% 2014-03-31
iShares US Insurance 1.88% -2.45% 22.73% -2.45% 0.66% 2014-03-31
PowerShares KBW Capital Markets 2.01% -2.01% 26.17% -2.01% 28.11% 2014-03-31
PowerShares KBW Insurance 1.60% -1.94% 28.74% -1.94% 29.70% 2014-03-31
SPDR S&P Capital Markets ETF 1.67% -1.62% 27.80% -1.62% 1.26% 2014-03-31
iShares MSCI ACWI ex US Financials 4.41% -1.27% 9.14% -1.35% 5.04% 2014-02-28
PowerShares DWA Financial Momentum Port 1.46% -1.35% 24.06% -1.35% 3.14% 2014-03-31
First Trust Specialty Finance Common -3.30% -1.03% 4.08% -1.03% -2.12% 2014-03-31
SPDR S&P Insurance ETF 2.50% -1.00% 21.86% -1.00% 3.92% 2014-03-31
SPDR S&P Mortgage Finance ETF -0.77% -1.00% 13.02% -1.00% 8.55% 2014-03-31
Kinetics Market Opportunities Inst -1.84% -0.96% 26.23% -0.96% 6.14% 2014-03-31
SPDR S&P International Financial Sector -0.06% -0.63% 17.21% -0.63% 1.16% 2014-03-31
Legg Mason Inv Counsel Fincl Svcs I 2.07% -0.58% 23.75% -0.58% 8.61% 2014-03-31
Saratoga Financial Services I 2.38% -0.12% 17.62% -0.12% 2.10% 2014-03-31
Regional Bank HOLDRS 0.00% 0.00% 0.00% 0.00% 0.00%
KSM Financial Services 0.00% 0.00% 0.00% 0.00% 0.00%
KSM TA Finance 15 0.00% 0.00% 0.00% 0.00% 0.00%
Hennessy Small Cap Financial Instl 1.53% 0.00% 21.39% 0.00% 12.80% 2014-03-31
Diamond Hill Financial Long-Short I 1.51% 0.00% 19.95% 0.00% 0.33% 2014-03-31
WisdomTree Japan Hedged Financials 0.00% 0.00% 0.00% 0.00% 0.00%
PowerShares S&P SmallCap Financials 1.12% 0.09% 16.37% 0.09% 13.85% 2014-03-31
iShares US Broker-Dealers 0.87% 0.19% 40.55% 0.19% -1.49% 2014-03-31
Davis Financial Y 1.92% 0.55% 19.09% 0.55% 7.45% 2014-03-31
First Trust Financials AlphaDEX 1.55% 0.66% 22.11% 0.66% 3.03% 2014-03-31

Upcoming events

Upcoming training

Mon, 12/05/2014 (All day) - Dubai
Tue, 13/05/2014 (All day) - Dubai